Precipitable_Water
2.31 2.31 2.26 1.84 0.99 1.04 0.99 1.03 1.23 1.14 1.12 1.33 1.32 1.23 1.09 1.19 1.00 0.73 1.48 1.37 1.26 1.37 1.47 1.54 1.53 1.58 1.62 1.73 1.68 1.67 1.65 1.66 1.69 1.69 1.74 1.74 1.74 1.76 1.76 1.81 1.79 1.68 1.75 1.71 1.73 1.66 1.58 1.54 1.54
2.27 2.19 1.95 1.48 0.92 0.74 0.87 1.12 0.96 1.14 1.15 1.25 1.24 1.26 1.03 0.97 1.32 1.29 1.29 1.39 1.28 1.39 1.48 1.54 1.57 1.53 1.56 1.58 1.55 1.57 1.56 1.56 1.62 1.71 1.73 1.68 1.66 1.69 1.72 1.75 1.81 1.78 1.71 1.72 1.69 1.61 1.52 1.51 1.46
2.17 2.12 1.37 1.14 0.95 0.68 0.77 1.11 1.20 1.23 1.25 1.28 1.17 1.28 1.02 1.04 1.19 1.20 1.42 1.42 1.33 1.40 1.50 1.56 1.54 1.55 1.60 1.61 1.57 1.63 1.57 1.51 1.57 1.71 1.71 1.71 1.68 1.71 1.70 1.73 1.72 1.82 1.86 1.84 1.82 1.60 1.49 1.48 1.62
1.94 1.76 1.47 0.95 0.83 0.83 0.90 1.03 1.18 1.10 1.22 1.33 1.24 0.94 1.15 1.36 1.20 1.36 1.52 1.41 1.30 1.38 1.49 1.54 1.53 1.57 1.69 1.71 1.64 1.60 1.67 1.62 1.58 1.64 1.67 1.68 1.73 1.74 1.71 1.66 1.70 1.71 1.77 1.83 1.85 1.79 1.75 1.67 1.68
1.71 1.44 0.95 0.82 0.88 0.92 0.94 1.04 1.18 1.02 1.06 1.22 1.19 0.94 1.00 1.31 1.48 1.50 1.51 1.38 1.26 1.34 1.48 1.54 1.55 1.55 1.63 1.69 1.76 1.66 1.65 1.67 1.66 1.68 1.69 1.75 1.72 1.69 1.68 1.69 1.68 1.71 1.77 1.72 1.76 1.79 1.83 1.82 1.79
1.16 1.25 0.82 0.68 0.77 0.94 1.08 1.14 1.18 1.01 0.96 0.95 0.95 0.96 1.10 1.53 1.54 1.59 1.60 1.37 1.36 1.32 1.44 1.54 1.56 1.59 1.62 1.66 1.75 1.81 1.80 1.80 1.77 1.76 1.78 1.81 1.80 1.83 1.77 1.69 1.70 1.72 1.76 1.78 1.78 1.80 1.89 1.75 1.69
0.97 0.88 0.75 0.70 0.80 0.86 0.99 1.22 1.08 1.00 0.97 0.86 1.00 0.82 1.12 1.40 1.63 1.60 1.57 1.45 1.41 1.44 1.45 1.49 1.53 1.58 1.61 1.66 1.73 1.81 1.85 1.89 1.87 1.87 1.87 1.89 1.88 1.89 1.92 1.86 1.83 1.84 1.83 1.80 1.80 1.76 1.85 1.86 1.80
0.99 0.89 0.72 0.74 0.73 0.77 1.04 1.06 1.13 1.09 1.06 1.30 1.23 0.83 0.87 1.31 1.60 1.65 1.62 1.48 1.50 1.53 1.50 1.44 1.48 1.55 1.60 1.66 1.79 1.81 1.83 1.88 1.94 1.93 1.94 1.99 2.06 2.04 2.01 1.91 1.97 1.99 1.96 2.07 1.88 1.80 1.80 1.87 1.82
0.97 0.66 0.59 0.65 0.67 0.75 1.04 0.96 1.14 1.16 1.15 1.19 1.20 1.11 1.19 1.44 1.56 1.62 1.54 1.53 1.62 1.68 1.63 1.51 1.46 1.50 1.59 1.69 1.79 1.85 1.88 1.84 1.91 2.01 2.04 2.05 2.02 2.08 2.09 1.99 1.88 1.93 2.01 2.01 2.08 1.97 1.86 1.83 1.86
0.75 0.62 0.56 0.61 0.67 0.63 0.88 0.87 0.91 0.95 1.04 1.11 1.15 1.24 1.32 1.40 1.44 1.44 1.42 1.39 1.55 1.59 1.70 1.71 1.63 1.56 1.63 1.69 1.74 1.79 1.81 1.83 1.80 1.92 1.96 2.02 2.05 2.10 2.14 2.03 1.96 1.93 1.94 2.05 1.98 1.97 1.93 1.93 1.91
0.70 0.55 0.53 0.51 0.58 0.67 0.74 0.80 0.91 0.89 0.87 1.01 1.00 1.13 1.29 1.31 1.39 1.45 1.46 1.48 1.52 1.65 1.70 1.75 1.70 1.71 1.63 1.59 1.63 1.69 1.71 1.77 1.79 1.85 1.89 2.00 2.08 2.20 2.14 2.07 2.01 1.93 1.93 1.97 2.10 1.98 1.91 1.83 1.83
0.59 0.59 0.55 0.54 0.61 0.65 0.67 0.79 0.78 0.91 0.94 1.13 1.20 1.28 1.33 1.29 1.30 1.40 1.46 1.55 1.61 1.64 1.69 1.71 1.69 1.67 1.63 1.60 1.55 1.57 1.75 1.85 1.82 1.82 1.87 1.98 2.05 2.07 2.16 2.13 2.08 2.02 1.95 1.91 1.97 1.89 1.83 1.79 1.79
0.55 0.57 0.56 0.58 0.58 0.64 0.77 0.67 0.74 0.84 1.08 1.17 1.25 1.33 1.38 1.44 1.42 1.50 1.58 1.62 1.70 1.67 1.70 1.70 1.74 1.71 1.66 1.68 1.56 1.64 1.76 1.83 1.88 1.91 2.08 2.05 1.98 1.98 2.11 2.12 2.11 2.19 2.16 2.13 2.05 1.92 1.76 1.76 1.83
0.58 0.55 0.52 0.56 0.54 0.58 0.58 0.63 0.76 0.91 1.12 1.10 1.20 1.33 1.44 1.53 1.59 1.64 1.66 1.68 1.72 1.77 1.77 1.82 1.72 1.75 1.82 1.79 1.67 1.71 1.81 1.89 1.96 1.99 2.02 2.01 1.96 2.01 2.02 2.06 2.15 2.12 2.16 2.15 2.18 2.07 1.89 1.76 1.82
0.55 0.48 0.50 0.52 0.53 0.55 0.60 0.59 0.67 1.04 1.14 1.04 1.27 1.36 1.34 1.51 1.66 1.67 1.75 1.75 1.87 1.85 1.86 1.85 1.84 1.85 1.83 1.81 1.78 1.83 1.78 1.86 1.88 1.98 2.09 2.02 1.94 2.00 1.92 2.00 2.12 2.18 2.22 2.16 2.17 2.15 2.08 1.93 1.86
0.49 0.49 0.43 0.52 0.55 0.55 0.51 0.44 0.76 0.99 1.05 1.07 1.23 1.26 1.26 1.33 1.54 1.68 1.75 1.73 1.91 1.97 1.96 2.32 1.99 1.84 1.88 1.82 1.82 1.83 1.79 1.81 1.86 1.93 2.04 2.07 2.00 1.96 1.95 1.90 1.98 2.16 2.15 2.14 2.14 2.14 2.10 2.01 1.92
0.50 0.43 0.44 0.49 0.54 0.52 0.49 0.51 0.78 0.97 1.07 1.06 1.20 1.33 1.19 1.31 1.51 1.62 1.65 1.66 1.78 1.85 1.83 1.96 1.93 1.86 1.83 1.83 1.84 1.85 1.89 1.87 1.81 1.83 1.90 2.01 1.98 1.98 2.05 2.07 1.99 2.04 2.12 2.14 2.12 2.10 2.13 2.06 2.02
0.43 0.43 0.48 0.49 0.53 0.52 0.50 0.57 0.71 0.89 1.00 1.05 1.20 1.27 1.19 1.30 1.40 1.57 1.65 1.61 1.69 1.64 1.62 1.81 1.97 1.97 1.95 1.90 1.83 1.89 1.91 1.90 1.87 1.82 1.82 1.88 1.95 1.98 1.97 2.12 2.17 2.03 1.92 2.03 2.08 2.07 2.11 2.09 2.07
0.52 0.49 0.48 0.50 0.60 0.52 0.55 0.60 0.70 0.89 1.01 1.10 1.19 1.25 1.17 1.20 1.45 1.49 1.47 1.56 1.62 1.77 1.73 1.81 1.85 1.95 1.97 1.89 1.81 1.82 1.77 1.88 1.87 1.85 1.88 1.90 1.94 1.94 1.97 2.04 2.06 2.15 1.98 1.82 1.93 2.03 2.02 1.99 2.12
0.51 0.47 0.45 0.45 0.60 0.54 0.59 0.58 0.74 0.92 1.03 1.07 1.12 1.12 1.12 1.08 1.23 1.32 1.38 1.44 1.58 1.66 1.76 1.80 1.86 1.90 1.90 1.92 1.94 1.92 1.91 1.95 1.99 2.02 2.00 2.01 2.02 1.95 1.92 1.97 1.99 2.03 2.09 2.07 1.90 1.85 1.91 1.98 2.11
0.48 0.44 0.46 0.42 0.52 0.55 0.58 0.56 0.63 0.77 0.94 1.04 1.03 1.07 1.12 0.99 1.02 1.06 1.16 1.21 1.41 1.60 1.66 1.77 1.71 1.81 1.99 2.09 2.07 2.06 2.08 2.14 2.02 2.00 2.01 2.06 2.04 2.04 1.96 1.96 1.99 2.10 2.04 2.02 2.07 1.89 1.86 1.87 1.92
0.41 0.45 0.40 0.41 0.41 0.35 0.57 0.35 0.53 0.67 0.72 0.84 0.89 0.94 0.94 0.98 1.06 1.05 1.07 1.07 1.26 1.54 1.60 1.63 1.69 1.78 1.94 2.14 2.04 2.06 2.11 1.77 1.96 2.02 2.08 2.12 2.16 2.17 2.13 2.10 2.03 2.10 2.12 1.97 2.06 2.09 1.95 2.04 1.84
0.41 0.45 0.38 0.37 0.34 0.36 0.43 0.38 0.43 0.66 0.59 0.70 0.84 0.88 0.82 0.98 1.07 1.06 1.00 1.01 1.22 1.44 1.48 1.52 1.61 1.72 1.90 1.98 2.10 2.16 1.98 2.00 1.95 1.87 1.80 1.90 2.03 2.17 2.22 2.15 2.18 2.16 2.15 2.13 2.07 2.10 2.07 2.04 1.91
0.43 0.37 0.34 0.34 0.31 0.27 0.35 0.37 0.39 0.47 0.56 0.68 0.83 0.79 0.76 0.93 1.06 1.06 1.01 1.14 1.24 1.39 1.38 1.40 1.47 1.58 1.79 1.94 1.91 1.92 1.77 1.61 1.47 1.44 1.44 1.55 1.74 1.91 2.05 2.17 2.18 2.19 2.20 2.05 2.04 2.09 2.09 2.10 2.12
0.34 0.31 0.24 0.23 0.23 0.24 0.46 0.43 0.48 0.64 0.72 0.81 0.83 0.81 0.76 0.95 1.05 0.98 0.97 1.04 1.17 1.28 1.32 1.36 1.46 1.57 1.70 1.80 1.73 1.64 1.48 1.35 1.39 1.43 1.53 1.73 1.87 2.02 2.06 2.11 2.18 2.09 2.13 2.10 2.03 2.04 2.10 2.10 2.06
0.28 0.26 0.23 0.21 0.23 0.28 0.48 0.40 0.49 0.74 0.84 0.91 0.92 0.84 0.89 0.93 1.00 0.97 0.92 1.02 1.17 1.23 1.31 1.41 1.47 1.53 1.64 1.65 1.60 1.40 1.34 1.37 1.43 1.48 1.62 1.86 2.01 2.21 2.20 2.10 2.15 2.18 2.08 2.11 1.99 2.02 2.18 2.18 2.08
0.29 0.23 0.29 0.31 0.41 0.33 0.44 0.55 0.67 0.75 0.81 0.89 0.84 0.86 0.89 0.93 0.99 0.91 0.91 1.07 1.19 1.25 1.38 1.49 1.54 1.57 1.53 1.42 1.37 1.33 1.34 1.43 1.40 1.52 1.66 1.90 2.13 2.19 2.23 2.24 2.24 2.24 2.10 2.14 2.04 2.02 2.12 2.15 2.12
0.29 0.30 0.28 0.34 0.27 0.28 0.40 0.47 0.49 0.62 0.73 0.78 0.73 0.79 0.92 1.03 1.08 0.97 0.93 1.03 1.21 1.31 1.39 1.47 1.51 1.43 1.44 1.42 1.42 1.32 1.39 1.42 1.46 1.51 1.60 1.73 2.01 2.12 2.08 2.13 2.20 2.14 2.13 2.11 2.14 2.13 2.19 2.14 2.10
0.29 0.29 0.35 0.40 0.39 0.32 0.33 0.40 0.60 0.65 0.75 0.71 0.71 0.80 0.97 1.01 1.12 1.15 1.13 1.18 1.27 1.36 1.41 1.41 1.43 1.46 1.45 1.46 1.43 1.38 1.39 1.40 1.47 1.48 1.58 1.72 1.84 1.96 2.03 2.04 2.00 2.05 2.06 2.12 2.14 2.16 2.14 2.04 2.05
0.43 0.40 0.45 0.37 0.37 0.45 0.45 0.40 0.67 0.74 0.80 0.81 0.84 0.81 0.92 1.10 1.25 1.25 1.28 1.34 1.34 1.33 1.37 1.35 1.33 1.43 1.52 1.50 1.47 1.41 1.35 1.36 1.38 1.43 1.55 1.73 1.82 1.99 1.99 2.04 2.01 2.03 2.07 2.13 2.08 2.09 2.12 2.05 1.98
Wind_Speed
8 8 8 8 8 9 7 7 7 8 6 4 3 2 2 3 1 1 9 14 17 17 17 16 16 14 13 12 12 12 12 12 12 12 11 11 10 10 10 9 9 9 9 9 9 10 10 10 11
6 8 9 8 9 10 6 4 8 7 7 8 6 5 4 2 2 7 12 14 17 17 17 16 15 14 12 11 11 11 11 11 10 10 9 9 9 9 8 8 8 8 8 8 8 8 8 9 10
7 7 7 7 7 7 8 5 6 7 5 6 7 5 4 4 6 12 12 16 17 16 16 16 15 13 12 11 10 10 10 10 9 8 8 8 7 7 7 7 6 6 6 6 7 7 7 8 9
6 7 7 9 8 7 7 5 6 6 6 6 7 7 6 4 10 9 14 16 16 16 15 15 14 12 11 10 9 9 8 8 8 7 6 6 6 6 6 5 5 5 5 5 5 6 6 7 7
5 6 8 8 8 6 7 7 8 8 8 6 6 5 7 8 9 11 13 14 15 15 15 14 13 11 10 8 8 8 7 7 7 6 5 5 4 4 4 4 3 3 4 4 4 5 5 6 6
4 4 6 5 5 5 7 7 8 7 10 9 7 6 4 7 9 10 12 13 14 14 14 14 13 11 9 8 7 7 6 6 6 5 5 4 3 3 2 2 2 2 3 4 4 5 5 5 6
2 3 2 3 3 5 5 6 6 8 8 10 9 7 4 6 8 10 11 12 13 13 13 13 12 11 10 8 7 7 6 5 5 4 4 4 3 3 2 3 3 3 3 4 5 5 5 6 6
2 3 2 1 2 3 4 4 5 6 8 8 7 7 2 6 9 10 10 12 11 12 12 12 12 11 10 9 8 7 6 5 5 5 4 4 4 5 5 5 7 7 7 6 6 6 6 7 7
1 2 3 2 2 3 4 4 4 6 6 7 6 7 4 8 9 10 10 11 10 10 11 11 12 11 10 9 8 7 6 6 6 5 5 5 6 7 7 6 5 5 7 7 7 8 8 8 8
1 0 3 1 2 3 4 3 3 6 4 7 6 9 8 8 9 10 10 10 10 10 10 11 11 11 11 10 9 8 7 6 6 6 6 5 5 5 5 6 5 5 7 8 7 8 8 9 9
1 1 2 2 2 4 5 3 3 6 5 4 5 6 7 7 7 9 10 10 9 9 8 10 12 12 11 10 10 9 8 7 7 7 7 6 5 4 4 5 4 5 5 7 8 8 8 9 9
2 4 2 2 3 4 4 3 3 2 6 3 3 5 5 5 6 8 10 10 10 9 9 9 11 12 12 10 10 10 9 8 8 8 7 7 5 5 5 7 6 6 7 7 8 8 8 8 8
3 4 5 3 1 1 2 1 3 3 4 3 3 3 3 2 4 6 8 10 10 10 10 10 11 12 12 10 10 10 10 9 8 7 8 7 7 5 5 5 6 6 6 7 8 8 9 8 9
6 7 6 6 5 3 2 3 2 5 3 2 2 1 2 1 3 5 6 9 10 10 11 10 11 12 12 11 10 10 10 10 8 7 7 8 7 7 6 7 8 8 7 8 8 8 8 8 9
6 4 3 3 4 5 2 4 5 2 1 1 2 3 8 3 4 4 7 11 13 12 11 11 11 13 12 12 12 11 10 10 10 10 9 8 9 9 8 7 6 7 8 8 8 8 8 9 9
3 2 1 4 4 3 2 5 5 1 1 0 1 1 6 4 4 5 7 11 13 12 13 9 13 13 13 12 12 12 11 11 11 11 10 10 10 10 9 8 7 7 8 8 8 9 9 10 10
1 2 1 5 1 2 2 4 5 3 1 1 1 3 8 5 4 4 5 4 10 14 12 16 11 13 13 12 12 12 11 11 12 12 12 11 12 12 12 10 10 9 8 7 7 8 9 9 11
3 3 3 6 4 1 2 2 5 4 3 2 3 3 6 4 4 3 2 6 2 5 6 10 12 13 13 12 11 13 12 11 12 13 13 13 14 14 14 13 12 11 10 10 9 8 8 9 9
5 5 5 7 4 1 3 2 5 3 2 2 3 3 5 5 4 4 3 2 1 3 5 4 9 11 13 11 11 12 12 12 13 13 15 15 15 16 16 15 14 13 13 12 12 11 10 9 8
7 6 7 5 3 3 2 2 4 4 4 1 2 4 4 5 4 3 3 2 2 1 5 4 5 7 9 11 10 12 13 13 14 15 16 18 19 18 19 19 18 17 16 15 14 14 12 11 10
8 6 5 6 4 2 3 3 3 5 4 3 5 4 3 2 2 2 2 2 3 2 3 6 5 6 8 10 10 11 12 13 14 15 17 19 20 21 22 22 21 20 19 19 17 17 16 13 12
8 9 7 4 2 5 3 6 6 6 5 5 5 3 1 2 2 2 3 3 3 3 2 4 5 6 7 11 13 14 11 11 11 16 19 21 23 24 25 25 25 25 23 22 21 19 18 17 15
13 8 7 3 2 2 5 4 9 7 7 6 6 3 2 0 1 2 3 2 2 3 3 3 4 5 6 8 12 12 10 12 15 17 20 22 24 27 28 28 28 28 26 24 24 22 21 19 17
12 8 3 4 5 5 7 4 8 7 8 7 7 4 2 1 2 3 3 2 2 2 3 3 4 6 7 7 9 11 12 14 16 19 22 27 29 31 32 31 29 28 27 25 25 24 22 21 20
6 5 6 5 4 6 4 5 9 8 8 7 7 6 3 2 0 3 4 3 2 1 1 2 3 4 5 7 8 9 11 13 15 18 22 23 22 26 31 32 29 28 28 26 25 25 25 23 22
7 9 9 8 6 7 6 8 9 7 9 12 11 9 6 4 2 1 2 3 4 3 2 1 3 4 5 6 7 9 10 13 15 19 23 19 17 16 15 22 25 25 28 26 23 23 23 23 23
8 8 10 6 5 5 8 10 11 10 8 8 10 11 8 6 4 1 1 2 3 3 3 3 3 5 6 7 8 8 11 14 15 17 19 19 14 10 6 12 18 20 25 26 23 22 22 23 23
10 9 8 7 7 9 9 10 9 8 9 9 9 12 10 7 5 2 1 1 1 2 3 3 4 5 6 8 9 10 12 14 15 15 16 17 14 10 7 5 11 17 19 26 22 22 20 20 21
7 8 6 6 7 8 8 11 11 12 11 13 11 10 12 9 7 4 2 2 2 2 3 4 5 6 7 9 10 12 14 15 16 16 15 14 13 11 9 8 7 13 17 21 22 21 21 21 20
6 7 8 7 10 8 6 11 7 8 7 14 12 8 10 9 10 6 5 4 4 4 4 5 6 7 9 10 12 13 14 16 15 15 14 13 13 12 11 10 8 6 12 16 18 19 19 19 20
Wind_Direction
72 61 60 55 64 50 42 51 34 37 49 40 59 52 99 39 105 145 137 142 145 145 145 143 140 135 131 125 122 118 117 116 116 113 109 106 104 103 102 104 105 108 111 116 117 114 113 116 117
75 63 55 56 65 55 34 41 38 34 45 57 55 57 45 72 82 130 140 148 149 148 146 145 143 138 134 128 125 122 123 123 121 117 112 108 106 105 103 104 108 110 115 119 125 126 122 122 126
74 51 46 50 62 51 52 53 60 48 55 30 41 47 51 88 106 139 145 150 152 152 151 149 145 141 136 132 128 126 126 129 129 123 116 112 109 110 107 104 108 112 119 125 132 135 136 134 137
55 51 46 53 52 39 29 54 70 41 30 46 51 46 69 86 125 137 146 152 156 158 157 156 153 146 141 137 137 135 132 134 137 132 124 120 115 113 113 107 111 119 125 130 141 146 145 148 150
35 50 54 48 43 42 40 54 57 56 46 41 45 56 85 104 121 135 146 154 159 163 165 165 164 160 154 147 145 145 143 144 145 142 135 137 127 125 123 115 111 126 139 145 150 159 160 163 166
28 38 43 56 53 75 45 60 58 54 56 57 62 73 95 123 129 143 150 157 163 167 171 173 174 174 171 166 160 157 153 155 160 159 156 154 153 154 158 155 152 157 168 175 175 174 176 174 178
26 45 19 30 30 69 55 69 55 72 66 58 75 58 77 147 142 141 153 161 166 170 175 179 182 184 183 180 174 172 171 170 175 183 191 198 209 219 220 228 228 227 209 199 199 196 197 195 191
43 35 7 56 28 30 74 78 64 61 36 53 59 41 73 165 153 149 150 160 166 173 179 183 186 188 189 187 186 184 188 195 202 213 215 225 238 245 258 256 243 259 229 221 216 213 208 207 209
352 16 5 151 82 48 122 60 63 25 49 34 33 31 77 142 154 153 153 160 167 176 182 187 191 192 194 196 197 198 203 211 217 222 230 240 254 260 261 249 243 239 225 226 227 224 221 220 223
119 5 266 194 119 57 129 74 73 40 46 15 29 53 98 134 156 163 166 167 175 181 188 194 197 197 198 203 206 211 216 223 228 233 239 249 262 266 244 231 241 246 233 232 229 227 227 229 230
271 183 63 89 173 108 108 91 37 54 11 13 84 75 112 135 156 174 182 186 186 187 194 204 202 201 203 209 213 217 223 229 235 238 240 248 262 256 242 230 244 243 240 231 233 232 231 232 233
282 228 191 81 103 101 96 77 42 17 354 33 70 80 104 134 165 179 192 197 196 202 206 205 203 206 210 215 220 222 226 235 238 241 242 248 255 255 259 247 250 254 241 243 241 235 232 232 232
187 269 237 231 220 75 96 303 350 334 13 40 67 84 102 138 192 199 202 204 207 211 213 215 210 209 213 218 223 222 229 235 238 237 242 244 246 259 255 250 251 255 248 249 237 236 232 233 233
280 284 247 222 247 256 303 309 349 345 51 52 81 33 351 299 226 231 222 215 216 220 218 217 217 217 219 222 223 226 229 232 233 237 247 244 247 251 260 260 267 254 251 243 240 239 236 235 234
271 263 212 224 253 258 244 336 324 315 78 57 81 35 357 318 270 252 247 236 234 230 225 222 218 221 225 228 227 230 234 234 238 244 251 250 246 249 256 263 270 254 252 250 243 240 240 238 237
264 167 260 273 270 240 214 330 319 222 212 29 132 351 349 356 290 271 258 263 237 239 241 243 231 226 225 230 232 234 238 240 242 244 249 252 251 247 251 258 264 266 254 253 244 246 244 241 242
163 186 282 313 205 266 313 320 322 266 246 293 263 293 346 9 330 306 271 329 233 240 251 231 234 223 223 230 233 235 241 245 247 245 248 253 250 250 250 255 259 258 255 248 246 248 247 246 241
235 281 283 303 265 303 35 323 322 262 257 245 231 286 332 335 330 317 244 42 133 187 218 221 225 223 222 229 235 237 242 250 250 250 251 253 253 252 250 253 255 252 249 246 247 248 249 247 244
245 251 270 288 244 236 334 352 356 354 350 234 262 290 326 326 328 295 256 289 96 192 215 216 217 221 223 229 232 234 245 252 255 255 256 253 256 254 251 253 251 250 247 246 245 247 249 245 245
234 258 290 283 250 248 242 336 359 4 347 290 260 283 318 338 329 296 247 264 266 249 214 212 219 222 226 235 241 242 248 257 262 262 262 260 258 256 252 251 250 249 249 247 245 244 244 245 238
244 236 264 248 241 261 211 298 314 323 328 314 324 311 310 311 347 331 290 264 242 275 240 227 248 251 240 242 251 255 259 265 268 267 268 266 261 256 254 252 250 250 248 248 246 244 242 244 241
252 273 249 206 208 220 250 262 280 295 296 293 307 327 311 285 315 320 317 295 265 258 297 259 259 271 257 260 262 261 275 280 283 280 276 273 264 261 257 253 250 249 249 249 245 244 244 244 243
239 258 239 208 221 250 280 273 276 276 278 282 295 303 299 325 10 336 323 277 278 252 292 299 284 284 276 288 282 281 294 299 301 295 287 280 273 264 258 255 251 248 246 248 246 246 244 244 244
248 227 230 247 267 268 265 259 281 265 253 257 263 272 216 188 19 13 5 355 320 283 279 293 309 287 287 295 306 309 313 318 315 308 300 291 279 269 259 254 249 247 243 244 245 246 244 245 246
211 215 246 268 290 234 255 287 281 260 248 243 242 241 200 197 206 26 42 41 21 355 313 308 324 324 313 313 313 317 321 324 326 326 320 310 293 278 260 246 245 245 241 241 243 245 244 245 247
228 212 213 226 230 247 262 289 287 258 262 254 247 224 208 211 229 31 60 53 47 50 50 17 8 357 354 344 334 328 329 331 331 335 338 329 317 302 262 238 241 246 234 236 242 243 243 243 245
226 225 214 207 252 246 272 295 290 270 247 234 207 205 203 210 223 207 111 63 51 45 47 43 24 5 351 349 345 338 335 335 334 339 349 353 347 337 289 241 241 240 232 231 238 242 247 244 245
219 209 211 245 231 248 274 286 288 285 239 216 198 208 206 210 217 221 229 282 352 16 20 13 1 358 351 347 344 341 339 339 339 340 347 357 0 360 355 285 251 233 241 227 237 243 244 246 249
201 207 216 221 244 238 263 274 286 260 234 219 205 222 217 216 225 229 255 271 268 314 331 334 334 335 337 337 336 335 335 334 337 337 337 340 351 351 336 332 301 249 237 232 239 244 246 248 252
196 207 214 229 245 261 270 288 307 240 214 199 205 214 215 228 234 237 242 251 275 276 298 315 315 316 321 330 331 328 329 332 334 336 337 338 334 330 324 319 310 287 244 238 242 247 244 250 253